142  
ASUS43 KFSD 190210  
RWRFSD  
 
WEATHER ROUNDUP FOR SE SOUTH DAKOTA/SW MINNESOTA/NW IOWA  
NATIONAL WEATHER SERVICE SIOUX FALLS SD  
900 PM CDT WED JUL 18 2018  
 
NOTE: "FAIR" INDICATES FEW OR NO CLOUDS BELOW 12,000 FEET WITH NO  
SIGNIFICANT WEATHER AND OR S TO VISIBILITY
.  
 
 
SDZ038>040-050-052>070-190300-  
SOUTHEAST SOUTH DAKOTA  
 
CITY SKY/WX TMP DP RH WIND PRES REMARKS
 
BROOKINGS CLOUDY 68 65 90 SE14 29.92S  
CHAMBERLAIN LGT RAIN 70 70 100 E7 29.79F  
HURON TSTM 70 66 87 E9 29.85S  
MADISON FAIR 68 68 100 SE10 29.91F  
MITCHELL CLOUDY 74 66 76 SE15G24 29.84F  
SIOUX FALLS CLOUDY 76 68 76 SE7 29.89F  
WINNER LGT RAIN 70 64 81 SW7 29.84F  
YANKTON MOCLDY 71 69 93 S7 29.88F  

 
 
MNZ071-072-080-081-089-090-097-098-190300-  
SOUTHWEST MINNESOTA  
 
CITY SKY/WX TMP DP RH WIND PRES REMARKS
 
FAIRMONT PTCLDY 74 66 76 MISG 29.96S  
JACKSON MOCLDY 72 63 73 SE6 29.96S  
LUVERNE LGT RAIN 72 64 78 E3 29.92F  
MARSHALL CLOUDY 75 66 73 SE7 29.92F  
MONTEVIDEO CLOUDY 75 66 73 SE8 29.92S  
PIPESTONE TSTM 70 66 88 S7 29.96S  
REDWOOD FALLS CLOUDY 75 67 76 SE6 29.93F  
TRACY CLOUDY 75 66 73 S3 29.93F  
WINDOM PTCLDY 73 70 88 SE7 29.94F  
WORTHINGTON CLOUDY 74 64 71 SE7 29.94F  

 
 
IAZ001>003-012>014-020>022-031-032-NEZ013-014-SDZ071-190300-  
NORTHWEST IOWA  
 
CITY SKY/WX TMP DP RH WIND PRES REMARKS
 
CHEROKEE CLOUDY 74 66 77 S3 29.94S  
DENISON PTCLDY 73 68 83 CALM 29.94F  
ESTHERVILLE PTCLDY 71 65 81 SE7 29.94F  
ORANGE CITY CLOUDY 75 70 83 SE8 29.92F  
SHELDON CLOUDY 75 66 73 S13G22 29.92S  
SIOUX CITY LGT RAIN 76 68 76 SE9 29.89F  
SPENCER CLOUDY 78 66 66 SE8 29.95S  
STORM LAKE CLOUDY 72 68 88 S6 29.95S  

 
 
ABBREVIATIONS USED IN REMARKS  
TC - TEMPERATURE IN CELSIUS  
WCI - WIND CHILL INDEX  
HX - HEAT INDEX  
VSB - VISIBILITY  
 
 
 
CLICK HERE TO GO TO PREVIOUS BULLETINS.

The Nexlab SD Page
The Nexlab IA Page
The Nexlab MN Page
The Nexlab NE Page Main Text Page